[Iaude] MPEC L09: 2024 KU1 [a=2.57,e=0.59,i=1.8,H=26.2]
    mpec at cfa.harvard.edu 
    mpec at cfa.harvard.edu
       
    Sat Jun  1 07:35:17 EDT 2024
    
    
  
M.P.E.C. 2024-L09                                  Issued 2024 June 1, 11:32 UT
     The Minor Planet Electronic Circulars contain information on unusual
         minor planets, routine data on comets and natural satellites,
         and occasional editorial announcements.  They are published
    on behalf of Division F of the International Astronomical Union by the
          Minor Planet Center, Smithsonian Astrophysical Observatory,
                          Cambridge, MA 02138, U.S.A.
			  
             Prepared using the Tamkin Foundation Computer Network
                              MPC at CFA.HARVARD.EDU
            URL https://www.minorplanetcenter.net/    ISSN 1523-6714
                                    2024 KU1                                    
Observations:
     K24K01U*1C2024 05 31.33529016 11 52.357-01 18 50.98         20.09GVEL009G96
     K24K01U 1C2024 05 31.34048916 11 57.156-01 18 51.34         21.08GVEL009G96
     K24K01U 1C2024 05 31.34567816 12 01.998-01 18 51.70               VEL009G96
     K24K01U 1C2024 05 31.35087816 12 06.822-01 18 52.20         20.43GVEL009G96
     K24K01U  C2024 05 31.38288216 12 36.425-01 18 58.47         20.4 GVEL009H01
     K24K01U  C2024 05 31.38870616 12 41.902-01 18 58.87         20.9 GVEL009H01
     K24K01U  C2024 05 31.39726716 12 49.957-01 18 59.88         21.9 GVEL009H01
     K24K01U  C2024 05 31.40654516 12 58.737-01 19 00.52         20.5 GVEL009H01
     K24K01U KC2024 05 31.44283216 13 33.438-01 19 00.08         20.61GVEL009I52
     K24K01U KC2024 05 31.44397716 13 34.579-01 19 00.52         20.04GVEL009I52
     K24K01U KC2024 05 31.44627216 13 36.746-01 19 01.13         21.06GVEL009I52
     K24K01U KC2024 06 01.02900216 23 19.272-01 20 44.52               VEL009J95
     K24K01U KC2024 06 01.04716716 23 36.756-01 20 46.54         21.3 GVEL009J95
     K24K01U KC2024 06 01.22266416 26 37.570-01 20 30.60         21.21GVEL009I52
     K24K01U KC2024 06 01.22363916 26 38.520-01 20 30.10         21.20GVEL009I52
     K24K01U KC2024 06 01.22559216 26 40.400-01 20 30.70         21.55GVEL009I52
     K24K01U  C2024 06 01.40103516 29 25.590-01 20 56.45         21.0 GVEL009H01
     K24K01U  C2024 06 01.40514116 29 29.513-01 20 57.03         20.4 GVEL009H01
     K24K01U  C2024 06 01.41471216 29 38.680-01 20 58.15         20.9 GVEL009H01
     K24K01U  C2024 06 01.42185916 29 45.533-01 20 58.93         20.2 GVEL009H01
Observer details:
G96 Mt. Lemmon Survey.  Observer T. Beuden.  Measurers T. Beuden, V. F.
    Carvajal, D. Fay, J. B. Fazekas, D. C. Fuls, A. R. Gibbs, A. D. Grauer, H.
    Groeller, J. K. Hogan, R. A. Kowalski, S. M. Larson, G. J. Leonard, D.
    Rankin, R. L. Seaman, F. C. Shelly, K. W. Wierzchos.  1.5-m reflector +
    10K CCD.
H01 Magdalena Ridge Observatory, Socorro.  Observers W. H. Ryan, E. V. Ryan.
    Measurer W. H. Ryan.  2.4-m f/8.9 Ritchey-Chretien + CCD.
I52 Steward Observatory, Mt. Lemmon Station.  Observers V. F. Carvajal, K. W.
    Wierzchos.  Measurers T. Beuden, V. F. Carvajal, D. Fay, J. B. Fazekas, D.
    C. Fuls, A. R. Gibbs, A. D. Grauer, H. Groeller, J. K. Hogan, R. A.
    Kowalski, S. M. Larson, G. J. Leonard, D. Rankin, R. L. Seaman, F. C.
    Shelly, K. W. Wierzchos.  1.0-m prime focus + CCD.
J95 Great Shefford.  Observer P. Birtwhistle.  0.41-m f/6.3 Schmidt-Cassegrain
    + CCD.
Orbital elements:
2024 KU1                                                 Earth MOID = 0.0555 AU
Epoch 2024 Mar. 31.0 TT = JDT 2460400.5                 Veres                   
M 345.19554              (2000.0)            P               Q                  
n   0.23874955     Peri.   35.58171     -0.33624434     +0.94161062             
a   2.5734023      Node   214.77966     -0.87103942     -0.31803451             
e   0.5856214      Incl.    1.76646     -0.35809227     -0.11055991             
P   4.13           H   26.22          G   0.15           U   8                  
Residuals in seconds of arc
240531 G96  0.4+  0.2-    240531 H01  0.1-  0.0     240601 I52  0.0   0.7+
240531 G96  0.3-  0.1-    240531 I52  0.2-  0.2+    240601 I52  0.5+  0.4+
240531 G96  0.1-  0.0     240531 I52  0.6+  0.1-    240601 H01  0.1-  0.2-
240531 G96  0.5-  0.0     240531 I52  0.2+  0.5-    240601 H01  0.1-  0.3-
240531 H01  0.1+  0.0     240601 J95  2.2-  0.3+    240601 H01  0.0   0.3-
240531 H01  0.0   0.1+    240601 J95  0.0   0.4+    240601 H01  0.0   0.2-
240531 H01  0.3-  0.2-    240601 I52  0.4-  0.1+
Ephemeris:
2024 KU1                 a,e,i = 2.57, 0.59, 2                   q = 1.0664
Date    TT    R. A. (2000) Decl.     Delta      r    Elong.  Phase     V
2024 05 02    12 36 08.6 -03 05 47   0.1435  1.1318   147.8    28.4    23.5
...
2024 05 17    13 28 30.8 -01 40 23   0.08731 1.0833   144.2    33.1    22.5
...
2024 05 25    14 40 00.4 -01 16 54   0.06498 1.0701   150.9    27.4    21.7
...
2024 05 31    16 06 25.3 -01 16 53   0.05628 1.0664   158.4    20.4    21.1
2024 06 01    16 22 51.3 -01 18 36   0.05582 1.0663   159.0    19.9    21.1
2024 06 02    16 39 28.2 -01 20 49   0.05567 1.0664   159.2    19.8    21.1
...
2024 06 08    18 12 46.9 -01 42 44   0.06119 1.0700   153.2    25.3    21.5
...
2024 06 16    19 35 44.9 -02 26 35   0.08126 1.0832   144.7    32.8    22.3
...
2024 07 01    20 38 42.4 -04 14 26   0.1358  1.1315   145.8    30.3    23.5
M. P. C. Staff               (C) Copyright 2024 MPC           M.P.E.C. 2024-L09
    
    
More information about the Iaude
mailing list